Het weer levert geen direct gevaar op.    Er zijn geen waarschuwingen afgegeven.


Onweer radar Meer informatie blitzortung!


Regen radar Meer informatie rain snow radar


Bezoek onze andere website:

Template documentation
and downloads

And another site



Select another period ( hide this area )

Eenheden Periode Custom range Directly to
Metrisch Engels Beide
Dagelijkse Wekelijkse Maandelijkse Jaarlijkse
use both date-selectors for a custom range
previous Dag
With this date

WeatherUnderground graphs for this period ( click here )


Dagelijkse Samenvatting Donderdag 20 juni 2019
Tijd Temp. ( °C ) Dew pt. ( °C ) Wind ( km/h ) van Windvlaag ( km/h ) Luchtdruk ( hPa ) Humid.( % ) Rainrate ( cm )
Hoog15,9 14,5 18,5 WZW ( 232/620 ) 9,2 1008,2 91 -
Gemiddeld15,3 13,8 10,0 WZW #23/62 6,0 1007,9 91 -
Laag15,1 13,6 5,6   1,3 1007,0 90 -
Dagelijkse Tabular details for Donderdag 20 juni 2019
Tijd Temp. ( °C ) Dew pt. ( °C ) Wind ( km/h ) van Windvlaag ( km/h ) Luchtdruk ( hPa ) Humid.( % ) Rainrate ( cm )
00:04 15,9 14,5 11,1 ZW 6,8 1007,0 91 -
00:07 15,9 14,4 14,8 WZW 8,8 1007,1 91 -
00:14 15,8 14,4 14,8 WZW 7,6 1007,3 91 -
00:19 15,8 14,3 11,1 WZW 9,0 1007,3 91 -
00:24 15,7 14,3 9,3 WZW 6,4 1007,3 91 -
00:29 15,7 14,2 11,1 Westen 6,0 1007,3 91 -
00:34 15,6 14,2 13,0 Westen 6,3 1007,4 91 -
00:39 15,6 14,1 18,5 Westen 7,6 1007,4 91 -
00:44 15,5 14,1 18,5 Westen 7,7 1007,4 91 -
00:49 15,4 14,0 12,9 Westen 9,2 1007,6 91 -
00:54 15,4 13,9 18,5 ZW 6,9 1007,5 91 -
00:59 15,4 13,9 9,3 WZW 4,5 1007,5 91 -
01:04 15,3 13,9 11,1 ZW 7,7 1007,7 91 -
01:09 15,3 13,8 13,0 Westen 5,0 1007,6 91 -
01:14 15,2 13,8 11,3 WNW 6,9 1007,6 91 -
01:19 15,2 13,8 9,3 ZW 5,0 1007,7 91 -
01:24 15,2 13,7 14,5 ZW 7,6 1007,8 91 -
01:29 15,2 13,7 14,8 WZW 6,6 1007,9 91 -
01:34 15,2 13,7 9,3 ZW 5,0 1007,9 91 -
01:39 15,2 13,8 9,3 Westen 6,8 1007,9 91 -
01:44 15,2 13,8 9,3 ZW 5,8 1007,9 91 -
01:49 15,2 13,8 14,8 WNW 8,2 1008,0 91 -
01:54 15,2 13,8 11,1 WZW 7,1 1008,1 91 -
01:59 15,2 13,8 11,1 WZW 6,4 1008,0 91 -
02:04 15,2 13,7 11,1 ZW 7,6 1008,1 91 -
02:09 15,2 13,7 7,4 Westen 6,1 1008,1 91 -
02:14 15,2 13,7 7,4 WZW 5,5 1008,0 91 -
02:19 15,1 13,7 11,3 Westen 5,5 1007,9 91 -
02:24 15,1 13,7 5,6 WZW 6,0 1007,9 91 -
02:29 15,1 13,7 6,4 Westen 5,0 1008,0 91 -
02:34 15,1 13,7 5,6 WZW 5,5 1008,1 91 -
02:39 15,1 13,7 11,1 WZW 4,0 1008,1 91 -
02:44 15,1 13,7 14,5 WZW 9,0 1008,1 91 -
02:49 15,1 13,7 9,3 WZW 5,1 1008,0 91 -
02:54 15,1 13,7 9,3 WZW 5,6 1008,0 91 -
02:59 15,1 13,7 9,3 Westen 5,5 1007,9 91 -
03:04 15,1 13,7 9,3 WZW 3,7 1007,9 91 -
03:09 15,1 13,7 6,4 ZW 5,3 1007,8 91 -
03:14 15,1 13,6 9,3 WZW 5,0 1007,8 91 -
03:19 15,1 13,6 5,6 Westen 1,3 1007,8 91 -
03:24 15,1 13,7 7,4 ZW 4,8 1007,9 91 -
03:29 15,1 13,6 6,4 ZW 5,8 1007,9 91 -
03:34 15,1 13,6 7,4 ZW 6,6 1008,0 91 -
03:39 15,1 13,6 13,0 ZW 7,2 1008,0 91 -
03:44 15,1 13,7 7,4 ZW 6,3 1008,0 91 -
03:49 15,1 13,7 11,3 ZZW 5,8 1008,1 91 -
03:54 15,1 13,7 11,1 WZW 4,0 1008,0 91 -
03:59 15,1 13,7 9,3 WZW 6,3 1008,0 91 -
04:04 15,2 13,7 8,0 WZW 6,4 1007,9 91 -
04:09 15,2 13,7 9,3 ZW 8,2 1008,0 91 -
04:14 15,2 13,7 7,4 WZW 6,6 1008,1 91 -
04:19 15,2 13,7 7,4 ZW 6,8 1008,1 91 -
04:24 15,2 13,7 9,3 WZW 4,8 1008,1 91 -
04:29 15,2 13,7 6,4 ZW 5,3 1008,1 91 -
04:34 15,2 13,7 5,6 ZW 3,2 1008,1 91 -
04:39 15,2 13,6 9,7 Westen 5,5 1008,0 90 -
04:44 15,2 13,6 9,3 WZW 7,7 1008,1 90 -
04:49 15,2 13,8 9,3 ZW 6,6 1008,1 91 -
04:54 15,2 13,8 5,6 Westen 3,5 1008,1 91 -
04:59 15,2 13,8 5,6 ZW 3,2 1008,1 91 -
05:04 15,2 13,8 7,4 ZW 4,0 1008,1 91 -
05:09 15,2 13,8 5,6 ZW 5,1 1008,2 91 -
Dagelijkse Samenvatting Donderdag 20 juni 2019
Tijd Temp. ( °C ) Dew pt. ( °C ) Wind ( km/h ) van Windvlaag ( km/h ) Luchtdruk ( hPa ) Humid.( % ) Rainrate ( cm )
Hoog15,9 14,5 18,5 WZW ( 232/620 ) 9,2 1008,2 91 -
Gemiddeld15,3 13,8 10,0 WZW #23/62 6,0 1007,9 91 -
Laag15,1 13,6 5,6   1,3 1007,0 90 -
Dagelijkse Tabular details for Donderdag 20 juni 2019
Tijd Temp. ( °C ) Dew pt. ( °C ) Wind ( km/h ) van Windvlaag ( km/h ) Luchtdruk ( hPa ) Humid.( % ) Rainrate ( cm )
00:04 15,9 14,5 11,1 ZW 6,8 1007,0 91 -
00:07 15,9 14,4 14,8 WZW 8,8 1007,1 91 -
00:14 15,8 14,4 14,8 WZW 7,6 1007,3 91 -
00:19 15,8 14,3 11,1 WZW 9,0 1007,3 91 -
00:24 15,7 14,3 9,3 WZW 6,4 1007,3 91 -
00:29 15,7 14,2 11,1 Westen 6,0 1007,3 91 -
00:34 15,6 14,2 13,0 Westen 6,3 1007,4 91 -
00:39 15,6 14,1 18,5 Westen 7,6 1007,4 91 -
00:44 15,5 14,1 18,5 Westen 7,7 1007,4 91 -
00:49 15,4 14,0 12,9 Westen 9,2 1007,6 91 -
00:54 15,4 13,9 18,5 ZW 6,9 1007,5 91 -
00:59 15,4 13,9 9,3 WZW 4,5 1007,5 91 -
01:04 15,3 13,9 11,1 ZW 7,7 1007,7 91 -
01:09 15,3 13,8 13,0 Westen 5,0 1007,6 91 -
01:14 15,2 13,8 11,3 WNW 6,9 1007,6 91 -
01:19 15,2 13,8 9,3 ZW 5,0 1007,7 91 -
01:24 15,2 13,7 14,5 ZW 7,6 1007,8 91 -
01:29 15,2 13,7 14,8 WZW 6,6 1007,9 91 -
01:34 15,2 13,7 9,3 ZW 5,0 1007,9 91 -
01:39 15,2 13,8 9,3 Westen 6,8 1007,9 91 -
01:44 15,2 13,8 9,3 ZW 5,8 1007,9 91 -
01:49 15,2 13,8 14,8 WNW 8,2 1008,0 91 -
01:54 15,2 13,8 11,1 WZW 7,1 1008,1 91 -
01:59 15,2 13,8 11,1 WZW 6,4 1008,0 91 -
02:04 15,2 13,7 11,1 ZW 7,6 1008,1 91 -
02:09 15,2 13,7 7,4 Westen 6,1 1008,1 91 -
02:14 15,2 13,7 7,4 WZW 5,5 1008,0 91 -
02:19 15,1 13,7 11,3 Westen 5,5 1007,9 91 -
02:24 15,1 13,7 5,6 WZW 6,0 1007,9 91 -
02:29 15,1 13,7 6,4 Westen 5,0 1008,0 91 -
02:34 15,1 13,7 5,6 WZW 5,5 1008,1 91 -
02:39 15,1 13,7 11,1 WZW 4,0 1008,1 91 -
02:44 15,1 13,7 14,5 WZW 9,0 1008,1 91 -
02:49 15,1 13,7 9,3 WZW 5,1 1008,0 91 -
02:54 15,1 13,7 9,3 WZW 5,6 1008,0 91 -
02:59 15,1 13,7 9,3 Westen 5,5 1007,9 91 -
03:04 15,1 13,7 9,3 WZW 3,7 1007,9 91 -
03:09 15,1 13,7 6,4 ZW 5,3 1007,8 91 -
03:14 15,1 13,6 9,3 WZW 5,0 1007,8 91 -
03:19 15,1 13,6 5,6 Westen 1,3 1007,8 91 -
03:24 15,1 13,7 7,4 ZW 4,8 1007,9 91 -
03:29 15,1 13,6 6,4 ZW 5,8 1007,9 91 -
03:34 15,1 13,6 7,4 ZW 6,6 1008,0 91 -
03:39 15,1 13,6 13,0 ZW 7,2 1008,0 91 -
03:44 15,1 13,7 7,4 ZW 6,3 1008,0 91 -
03:49 15,1 13,7 11,3 ZZW 5,8 1008,1 91 -
03:54 15,1 13,7 11,1 WZW 4,0 1008,0 91 -
03:59 15,1 13,7 9,3 WZW 6,3 1008,0 91 -
04:04 15,2 13,7 8,0 WZW 6,4 1007,9 91 -
04:09 15,2 13,7 9,3 ZW 8,2 1008,0 91 -
04:14 15,2 13,7 7,4 WZW 6,6 1008,1 91 -
04:19 15,2 13,7 7,4 ZW 6,8 1008,1 91 -
04:24 15,2 13,7 9,3 WZW 4,8 1008,1 91 -
04:29 15,2 13,7 6,4 ZW 5,3 1008,1 91 -
04:34 15,2 13,7 5,6 ZW 3,2 1008,1 91 -
04:39 15,2 13,6 9,7 Westen 5,5 1008,0 90 -
04:44 15,2 13,6 9,3 WZW 7,7 1008,1 90 -
04:49 15,2 13,8 9,3 ZW 6,6 1008,1 91 -
04:54 15,2 13,8 5,6 Westen 3,5 1008,1 91 -
04:59 15,2 13,8 5,6 ZW 3,2 1008,1 91 -
05:04 15,2 13,8 7,4 ZW 4,0 1008,1 91 -
05:09 15,2 13,8 5,6 ZW 5,1 1008,2 91 -

Download your copy of this data-set  here

Our weather-data as stored at Weather Underground. Script ontwikkeld door Jim McMurry. Aangepast voor de template door Leuven-Template.eu

U vindt ons ook hier:

Het Weer Aktueel

European Weather Network

Weather Underground

Benelux Weer Netwerk

Citizen Weather Observer Program (CWOP)

Apparatuur in gebruik:

Weerstation
Davis VP2

Weerprogramma
Weather Display

Weercomputer
My Computer

Webleverancier
WeservIT

Davis VP2

Weather Display

My Computer

WeservIT